Date,TemperatureHighF,TemperatureAvgF,TemperatureLowF,DewpointHighF,DewpointAvgF,DewpointLowF,HumidityHigh,HumidityAvg,HumidityLow,PressureMaxIn,PressureMinIn,WindSpeedMaxMPH,WindSpeedAvgMPH,GustSpeedMaxMPH,PrecipitationSumIn
2013-1-1,26.4,16.7,5.7,20.3,14.6,5.6,99,92,68,30.45,30.31,11,3,11,0.00
2013-1-2,36.5,20.3,6.4,25.9,16.9,6.3,99,88,52,30.40,30.29,12,3,12,0.00
2013-1-3,32.9,25.2,13.5,31.2,24.5,13.1,99,97,82,30.51,30.30,16,5,16,0.00
2013-1-4,37.6,23.7,10.2,31.9,22.6,10.1,99,96,79,30.50,30.41,14,4,14,0.02
2013-1-5,38.1,31.3,23.0,37.9,31.0,22.6,99,99,94,30.42,30.16,14,4,14,0.00
2013-1-6,35.8,25.9,17.2,35.5,25.6,17.0,99,99,93,30.51,30.14,18,5,18,0.00
2013-1-7,46.8,31.2,19.4,38.1,29.3,19.2,99,93,70,30.50,30.28,19,6,19,0.00
2013-1-8,53.8,37.7,29.5,43.3,35.7,29.2,99,93,64,30.32,30.22,19,6,19,0.00
2013-1-9,52.0,38.4,25.3,44.9,35.8,25.1,99,92,58,30.67,30.23,19,4,19,0.01
2013-1-10,50.9,36.3,25.3,50.5,35.7,25.1,99,98,84,30.65,29.97,16,5,16,0.28
2013-1-11,60.8,51.9,46.6,60.4,51.6,46.1,99,99,99,30.00,29.85,23,7,23,0.22
2013-1-12,52.7,40.1,24.6,52.4,39.8,24.2,99,99,99,30.19,29.90,15,6,15,0.00
2013-1-13,24.4,18.5,12.7,24.0,18.3,12.6,99,99,99,30.45,30.08,15,6,15,0.00
2013-1-14,32.2,16.5,10.9,26.9,15.4,10.8,99,96,73,30.62,30.45,8,2,8,0.00
2013-1-15,41.4,21.4,9.3,31.8,18.9,9.2,99,91,65,30.58,30.29,8,1,8,0.04
2013-1-16,42.4,28.2,12.4,35.5,25.8,12.2,99,91,70,30.29,30.06,14,3,14,0.01
2013-1-17,35.2,28.6,18.9,35.0,26.3,18.7,99,91,65,30.60,30.25,18,3,18,0.01
2013-1-18,26.1,24.4,21.6,25.8,24.2,21.3,99,99,99,30.60,29.40,7,4,7,0.00
2013-1-19,24.4,24.4,24.4,24.2,24.2,24.2,99,99,99,30.57,30.57,4,4,4,0.00
2013-1-20,24.4,24.4,24.4,24.2,24.2,24.2,99,99,99,30.57,30.57,4,4,4,0.00
2013-1-21,76.3,18.1,3.4,59.2,13.2,-7.5,99,84,16,30.57,30.42,15,5,15,0.09
2013-1-22,18.0,8.7,0.1,5.7,1.4,-2.7,98,74,47,30.60,30.49,13,5,13,0.00
2013-1-23,34.9,20.4,11.5,22.3,13.0,5.3,95,73,49,30.54,30.28,22,5,22,0.00
2013-1-24,30.7,17.0,6.1,14.5,8.7,1.6,99,71,44,30.79,30.45,15,4,15,0.00
2013-1-25,38.7,27.1,18.5,27.1,20.4,11.8,99,77,56,30.46,30.19,17,6,17,0.00
2013-1-26,43.7,24.2,9.5,22.7,16.2,9.3,99,75,36,30.58,30.40,11,3,11,0.00
2013-1-27,44.1,31.5,11.1,43.8,30.1,10.9,99,95,82,30.52,29.87,17,8,17,0.04
2013-1-28,57.4,49.8,44.2,56.9,49.5,43.8,99,99,99,29.93,29.76,19,5,19,0.01
2013-1-29,66.6,57.3,51.1,66.1,57.1,50.6,99,99,99,29.76,29.40,23,5,23,0.73
2013-1-30,51.4,31.5,17.2,51.2,31.3,16.3,99,99,99,29.76,29.26,32,8,32,0.24
2013-1-31,20.8,13.0,3.0,20.6,12.4,2.6,99,97,90,30.25,29.75,26,11,26,0.00
2013-2-1,20.5,10.5,0.3,19.7,7.9,0.2,99,90,71,30.39,30.14,25,7,25,0.00
2013-2-2,27.7,20.6,14.0,27.5,20.4,13.8,99,99,99,30.14,30.00,19,5,19,0.00
2013-2-3,31.3,23.1,16.0,25.5,21.6,15.8,99,94,73,30.08,29.94,21,5,21,0.00
2013-2-4,41.2,28.2,16.9,37.3,27.5,16.5,99,97,80,29.97,29.77,17,4,17,0.00
2013-2-5,41.7,30.0,16.0,41.0,29.8,15.8,99,99,95,30.08,29.81,21,4,21,0.00
2013-2-6,47.3,35.1,11.1,41.0,34.8,10.9,99,99,84,30.25,29.89,15,3,15,0.00
2013-2-7,37.8,35.5,32.2,37.1,35.3,31.9,99,99,99,29.92,29.70,14,4,14,0.57
2013-2-8,32.5,28.0,25.3,31.9,27.8,25.1,99,99,99,30.22,29.88,12,1,12,0.00
2013-2-9,42.8,32.5,26.2,42.1,32.1,26.0,99,99,93,30.22,29.87,19,5,19,0.00
2013-2-10,48.9,42.0,35.4,48.7,41.7,32.8,99,99,99,29.89,29.35,28,11,28,0.46
2013-2-11,41.4,33.7,29.3,41.1,32.7,29.1,99,96,83,29.95,29.46,23,9,23,0.00
2013-2-12,46.4,31.7,26.1,39.7,30.2,25.8,99,94,72,30.00,29.77,8,2,8,0.00
2013-2-13,51.3,37.4,27.7,43.7,35.5,27.5,99,93,70,29.78,29.60,11,2,11,0.00
2013-2-14,43.9,37.3,32.9,42.0,36.9,32.7,99,98,90,29.87,29.55,17,4,17,0.00
2013-2-15,39.6,28.6,19.4,32.8,23.8,18.2,99,84,51,30.08,29.87,15,6,15,0.00
2013-2-16,38.8,20.9,12.0,25.8,17.1,11.8,99,87,55,30.07,29.98,17,5,17,0.00
2013-2-17,59.2,28.2,9.7,36.2,22.3,9.5,99,82,41,30.05,29.75,19,7,19,0.00
2013-2-18,139.1,41.0,-36.4,99.9,38.8,-38.2,99,96,83,29.75,29.32,23,10,23,0.07
2013-2-19,28.6,18.4,11.7,28.2,18.2,11.3,99,99,99,30.10,29.61,0,0,0,0.00
2013-2-20,40.5,10.7,-35.0,40.2,10.5,-34.8,99,99,99,30.25,30.09,0,0,0,0.02
2013-2-21,29.8,22.5,10.8,29.6,22.3,10.6,99,99,99,30.20,29.72,0,0,0,0.00
2013-2-22,34.7,22.8,-34.6,34.5,22.6,-36.1,99,99,99,29.83,29.62,11,1,11,0.05
2013-2-23,51.1,17.0,-37.3,37.1,16.8,-37.5,99,99,99,29.85,29.81,9,3,9,0.02
2013-2-24,115.0,30.3,-17.7,78.0,29.7,-36.1,99,98,79,29.97,29.84,10,2,10,0.05
2013-2-25,66.2,36.3,21.4,65.4,36.1,21.2,99,99,99,29.97,29.70,14,4,14,0.00
2013-2-26,127.9,29.7,-32.8,99.9,29.0,-38.0,99,99,99,29.71,29.32,29,6,29,0.00
2013-2-27,64.8,23.9,-39.8,60.2,23.7,-39.6,99,99,99,29.65,29.37,8,1,8,0.87
2013-2-28,120.4,27.7,-32.1,99.9,27.3,-38.9,99,99,99,29.93,29.64,10,3,10,0.07
2013-3-1,37.9,22.3,-38.2,37.5,22.1,-39.5,99,99,99,30.06,29.91,9,4,9,0.01
2013-3-2,40.8,22.5,5.4,35.6,21.4,5.2,99,96,72,30.09,30.01,13,3,13,0.01
2013-3-3,51.3,23.9,2.7,35.7,17.0,2.5,99,78,39,30.03,29.91,6,1,6,0.00
2013-3-4,51.1,32.8,24.1,44.1,31.4,21.5,99,95,72,29.93,29.75,21,8,21,0.01
2013-3-5,33.4,30.9,26.6,33.2,30.6,26.4,99,99,99,29.92,29.68,17,4,17,0.00
2013-3-6,32.9,27.5,23.5,32.1,27.2,23.3,99,99,99,30.19,29.92,16,6,16,0.00
2013-3-7,64.0,34.8,23.2,45.1,30.3,23.0,99,87,46,30.26,30.17,10,2,10,0.01
2013-3-8,60.4,37.8,19.4,46.9,34.1,19.2,99,88,60,30.28,30.08,18,5,18,0.00
2013-3-9,51.4,42.0,35.8,51.2,41.7,35.5,99,99,93,30.09,29.63,24,9,24,0.15
2013-3-10,58.8,48.8,42.4,58.4,48.5,39.8,99,99,99,29.68,29.41,22,5,22,0.34
2013-3-11,46.6,35.8,30.0,46.1,35.5,29.8,99,99,99,29.75,29.47,17,4,17,0.01
2013-3-12,45.0,31.5,24.6,41.5,31.1,24.2,99,99,89,29.95,29.75,24,4,24,0.00
2013-3-13,39.7,31.0,21.7,27.5,25.0,21.5,99,80,56,30.21,30.18,14,4,14,0.00
2013-3-14,57.2,34.7,19.2,44.2,31.5,18.8,99,90,59,30.20,29.92,17,4,17,0.00
2013-3-15,61.2,43.4,31.1,53.3,41.5,30.9,99,94,68,29.92,29.53,11,3,14,0.00
2013-3-16,43.2,35.9,29.8,42.9,35.7,29.6,99,99,97,29.96,29.50,14,4,14,0.00
2013-3-17,43.2,33.2,28.4,39.5,32.3,28.2,99,96,84,30.01,29.76,17,6,17,0.01
2013-3-18,41.4,32.7,25.7,40.9,32.4,23.3,99,98,92,29.76,29.54,20,7,20,0.00
2013-3-19,33.6,32.5,31.5,33.4,32.3,31.2,99,99,99,29.83,29.62,16,9,16,0.00
2013-3-20,41.0,32.9,25.0,40.7,32.5,23.0,99,98,91,29.81,29.55,19,7,19,0.01
2013-3-21,33.4,31.2,26.8,33.2,30.9,26.5,99,99,99,29.91,29.69,14,5,14,0.00
2013-3-22,32.9,27.6,23.5,32.7,27.3,23.3,99,99,99,30.20,29.91,14,6,14,0.00
2013-3-23,67.3,40.7,25.0,43.8,32.2,24.7,99,76,40,30.22,29.83,13,4,13,0.00
2013-3-24,34.3,31.1,29.1,34.1,30.8,28.9,99,99,94,29.86,29.51,13,4,13,0.00
2013-3-25,42.3,31.6,27.1,40.3,31.3,26.7,99,99,92,30.00,29.62,16,4,16,0.01
2013-3-26,41.7,34.7,30.4,38.4,33.1,30.1,99,94,77,30.16,29.99,12,4,12,0.01
2013-3-27,54.1,37.3,23.7,39.3,31.4,23.5,99,81,50,30.23,30.16,11,2,11,0.00
2013-3-28,68.0,42.2,21.4,47.7,34.6,21.2,99,78,43,30.24,30.13,13,2,13,0.00
2013-3-29,73.4,49.7,32.5,49.6,40.0,32.3,99,75,39,30.17,30.07,12,2,12,0.00
2013-3-30,64.8,47.5,32.2,55.2,44.3,31.9,99,90,70,30.09,29.75,18,5,18,0.00
2013-3-31,63.3,50.6,38.1,57.3,45.2,33.8,99,84,49,29.83,29.67,22,7,22,0.00
2013-4-1,47.1,36.1,27.3,35.1,27.3,21.7,99,73,44,30.09,29.82,18,7,18,0.00
2013-4-2,51.8,35.1,17.2,31.8,23.4,17.0,99,68,30,30.19,30.09,16,4,16,0.00
2013-4-3,67.1,41.9,19.9,34.1,26.3,19.7,99,62,22,30.31,30.16,13,3,13,0.00
2013-4-4,69.8,46.1,24.3,41.5,30.6,23.9,99,61,29,30.16,29.88,11,2,11,0.00
2013-4-5,73.6,51.8,34.0,46.1,36.9,27.8,99,63,27,30.08,29.90,16,4,16,0.00
2013-4-6,76.5,57.6,41.0,60.4,43.5,29.6,99,61,41,29.94,29.52,28,10,28,0.00
2013-4-7,81.9,58.2,40.8,61.8,51.1,40.6,99,81,46,29.83,29.60,13,3,13,0.00
2013-4-8,79.2,63.3,54.7,72.2,61.3,49.5,99,94,75,29.76,29.47,21,5,21,0.13
2013-4-9,82.4,64.9,51.3,75.5,63.4,51.0,99,95,78,29.77,29.67,17,5,17,0.01
2013-4-10,51.3,44.9,39.9,51.0,44.7,39.7,99,99,99,29.82,29.58,20,8,20,0.20
2013-4-11,51.3,44.4,37.2,51.0,44.1,37.0,99,99,99,29.58,29.48,20,6,20,0.02
2013-4-12,43.9,39.2,36.5,43.2,39.0,36.2,99,99,98,29.79,29.49,15,6,15,0.00
2013-4-13,54.9,43.9,35.1,45.4,39.4,33.3,99,85,64,29.87,29.77,18,5,18,0.00
2013-4-14,83.5,62.1,43.7,67.4,55.0,43.4,99,81,51,29.83,29.48,27,10,27,0.00
2013-4-15,136.4,54.2,-38.9,99.9,53.1,-38.7,99,99,86,29.88,29.55,20,4,24,0.08
2013-4-16,137.5,34.9,-31.5,99.9,34.4,-33.2,99,99,99,30.07,29.83,13,2,13,0.06
2013-4-17,139.3,47.8,-37.8,99.9,38.3,-63.8,99,84,10,30.10,29.57,19,7,19,0.59
2013-4-18,137.7,55.5,-32.8,62.0,-0.3,-72.3,10,10,10,29.60,29.30,24,7,24,0.11
2013-4-19,138.4,41.1,-30.6,62.2,-11.4,-71.8,10,10,10,29.88,29.47,25,10,25,0.05
2013-4-20,67.3,41.8,28.2,33.4,-6.7,-21.4,99,17,10,30.25,29.88,9,3,9,0.00
2013-4-21,70.5,50.4,35.6,69.9,21.2,-15.7,99,49,10,30.32,30.15,19,8,19,0.01
2013-4-22,75.6,58.9,43.3,57.6,50.0,43.1,99,75,47,30.16,29.88,17,6,17,0.00
2013-4-23,59.0,48.8,40.6,58.2,48.6,40.2,99,99,97,29.92,29.79,17,4,17,0.30
2013-4-24,42.8,40.7,40.5,42.5,40.4,40.2,99,99,99,29.86,29.79,9,8,9,0.22
2013-4-25,40.5,40.5,40.5,40.2,40.2,40.2,99,99,99,29.83,29.83,8,8,8,0.00
2013-4-26,40.5,40.5,40.5,40.2,40.2,40.2,99,99,99,29.83,29.83,8,8,8,0.00
2013-4-27,40.5,40.5,40.5,40.2,40.2,40.2,99,99,99,29.83,29.83,8,8,8,0.00
2013-4-28,40.5,40.5,40.5,40.2,40.2,40.2,99,99,99,29.83,29.83,8,8,8,0.00
2013-4-29,40.5,40.5,40.5,40.2,40.2,40.2,99,99,99,29.83,29.83,8,8,8,0.00
2013-4-30,40.5,40.5,40.5,40.2,40.2,40.2,99,99,99,29.83,29.83,8,8,8,0.00
2013-5-1,40.5,40.5,40.5,40.2,40.2,40.2,99,99,99,29.83,29.83,8,8,8,0.00
2013-5-2,40.5,40.5,40.5,40.2,40.2,40.2,99,99,99,29.83,29.83,8,8,8,0.00
2013-5-3,40.5,40.5,40.5,40.2,40.2,40.2,99,99,99,29.83,29.83,8,8,8,0.00
2013-5-4,40.6,40.5,40.5,40.4,40.2,40.2,99,99,99,29.83,29.83,8,8,8,0.00
2013-5-5,40.5,40.5,40.5,40.2,40.2,40.2,99,99,99,29.83,29.83,8,8,8,0.00
2013-5-6,40.5,40.5,40.5,40.2,40.2,40.2,99,99,99,29.83,29.83,8,8,8,0.00
2013-5-9,138.7,50.4,-9.0,99.9,49.1,-9.2,99,99,99,30.10,29.85,17,7,17,0.07
2013-5-10,138.7,47.7,-29.7,99.9,23.0,-63.6,99,59,10,29.92,29.51,17,6,17,0.65
2013-5-11,136.8,40.4,-31.0,61.2,-12.3,-68.7,10,10,10,29.60,29.44,25,10,25,0.08
2013-5-12,125.2,36.6,-33.0,52.6,-11.1,-70.3,99,17,10,30.15,29.61,20,6,20,0.00
2013-5-13,69.3,45.7,35.4,10.3,-7.9,-15.9,10,10,10,30.32,30.14,17,5,17,0.00
2013-5-14,70.0,53.5,43.3,69.7,48.7,8.1,99,87,10,30.26,30.05,17,7,17,0.01
2013-5-15,75.4,58.8,41.7,58.4,52.1,41.5,99,82,45,30.05,29.79,14,6,14,0.08
2013-5-16,42.8,40.7,40.5,42.5,40.4,40.2,99,99,99,29.86,29.79,9,8,11,0.24
2013-5-17,40.5,40.5,40.5,40.2,40.2,40.2,99,99,99,29.83,29.83,8,8,8,0.00
2013-5-18,40.5,40.5,40.5,40.2,40.2,40.2,99,99,99,29.83,29.83,8,8,8,0.00
2013-5-19,85.1,48.8,40.5,79.3,47.7,-8.3,99,97,82,30.14,29.60,8,7,8,0.00
2013-5-20,90.9,77.9,72.1,79.7,75.5,71.9,99,92,67,30.03,29.58,21,0,21,0.05
2013-5-21,78.4,71.9,67.1,75.1,71.7,66.8,99,99,99,29.93,29.85,0,0,0,0.01
2013-5-22,86.5,67.2,61.5,84.5,66.9,61.3,99,99,99,30.00,29.84,0,0,0,0.00
2013-5-23,64.6,60.1,53.4,64.3,59.9,53.2,99,99,99,30.45,29.99,0,0,0,0.00
2013-5-24,80.1,56.7,44.8,66.0,53.3,44.5,99,89,55,30.63,30.44,0,0,0,0.00
2013-5-25,55.4,52.7,50.0,55.1,51.5,46.2,99,96,79,30.59,30.42,2,0,2,0.00
2013-5-27,135.9,37.1,-33.0,60.5,-14.7,-70.3,10,10,10,30.31,29.81,21,8,21,0.00
2013-5-28,85.1,64.0,28.2,79.4,49.1,-21.5,99,71,10,30.45,29.91,6,1,6,0.00
2013-5-29,90.9,81.0,72.1,80.3,76.4,71.8,99,87,67,29.96,29.89,11,2,11,0.05
2013-5-30,85.8,69.0,61.7,85.5,68.7,61.4,99,99,99,29.91,29.84,0,0,0,0.01
2013-5-31,72.1,63.1,58.5,71.8,62.8,58.2,99,99,99,30.25,29.89,0,0,0,0.00
2013-6-1,80.2,56.7,44.8,65.1,54.8,44.5,99,94,57,30.62,30.26,0,0,0,0.00
2013-6-2,64.2,55.9,50.0,60.7,53.3,46.2,99,92,72,30.59,30.44,0,0,0,0.00
2013-6-3,55.4,55.0,50.9,55.1,54.7,50.6,99,99,99,30.50,30.42,0,0,0,0.00
2013-6-4,71.8,59.3,45.5,55.5,54.2,-8.1,99,86,10,30.45,29.89,4,1,4,1.22
2013-6-5,76.3,67.2,57.0,61.5,56.7,52.7,87,70,49,29.93,29.75,8,1,8,0.00
2013-6-6,72.0,62.5,57.6,60.8,56.4,53.0,96,81,64,29.78,29.72,4,0,4,0.00
2013-6-9,74.8,68.2,45.5,64.1,58.3,-8.1,82,71,10,30.37,29.89,14,2,14,0.00
2013-6-10,82.9,70.2,60.8,68.6,59.8,55.7,93,72,40,29.97,29.86,9,2,9,0.00
2013-6-11,91.2,79.6,45.5,76.3,67.4,-8.1,93,69,10,30.26,29.82,8,2,8,0.06
2013-6-12,93.9,83.1,70.5,76.1,70.8,66.0,92,68,46,29.90,29.62,12,3,12,0.00
2013-6-13,88.7,77.2,67.5,70.4,57.4,45.4,91,54,23,30.02,29.69,14,4,14,0.00
2013-6-14,89.6,74.2,58.5,59.7,55.1,48.8,81,54,28,30.14,29.98,9,2,9,0.00
2013-6-15,81.0,73.0,66.2,70.8,64.1,55.7,99,74,60,30.06,29.89,19,3,19,0.25
2013-6-16,88.3,72.9,64.0,73.4,67.9,63.8,99,86,48,29.98,29.91,8,1,8,0.06
2013-6-17,94.5,78.8,61.9,73.4,62.2,53.7,97,62,27,29.97,29.90,4,1,4,0.00
2013-6-18,87.3,75.2,64.6,64.2,59.7,54.3,91,61,37,30.05,29.89,11,3,11,0.00
2013-6-19,90.7,74.8,57.0,62.9,54.0,47.0,79,51,23,30.12,30.03,9,2,9,0.00
2013-6-20,97.2,81.8,65.3,68.9,60.4,52.5,86,51,26,30.14,30.05,11,3,11,0.00
2013-6-21,94.5,78.5,68.0,78.2,67.6,61.1,99,72,42,30.17,29.97,16,5,16,0.11
2013-6-22,93.0,79.6,69.8,76.4,70.7,63.7,86,75,53,30.08,29.97,17,4,17,0.00
2013-6-23,92.8,76.3,68.2,76.6,68.6,63.7,99,80,47,30.05,29.92,74,3,74,0.25
2013-6-24,83.5,71.4,65.1,83.3,70.5,8.9,99,97,14,30.13,29.89,32,3,32,4.42
2013-6-25,87.8,77.3,68.7,87.3,74.9,66.5,99,93,71,29.94,29.82,12,3,12,0.26
2013-6-26,86.4,75.8,67.5,84.3,75.2,10.1,99,98,10,29.86,29.74,11,2,11,0.40
2013-6-27,88.2,79.6,72.1,82.8,76.1,71.1,99,90,66,29.87,29.77,11,2,11,0.00
2013-6-28,88.0,76.6,65.5,75.9,63.6,53.9,99,68,36,29.82,29.68,17,4,17,0.00
2013-6-29,76.1,68.2,63.7,69.7,64.3,59.4,99,87,71,29.79,29.63,11,3,11,0.13
2013-6-30,82.8,70.6,60.3,66.1,59.6,47.9,93,70,48,30.00,29.79,11,3,11,0.17
2013-7-1,80.8,70.1,59.4,54.9,50.8,45.4,75,52,31,30.06,29.98,14,3,14,0.00
2013-7-2,77.9,68.3,59.7,57.7,54.1,48.0,80,62,36,30.08,30.02,9,2,9,0.00
2013-7-3,78.6,67.0,58.5,60.4,55.1,44.6,93,69,33,30.09,30.02,8,1,8,0.00
2013-7-4,89.2,75.8,61.3,66.6,60.8,56.0,88,62,39,30.09,30.02,8,3,11,0.00
2013-7-5,87.8,76.4,66.0,69.9,62.9,54.4,95,65,39,30.10,30.02,9,3,9,0.00
2013-7-6,90.9,77.9,66.9,71.1,66.8,61.9,96,70,44,30.07,29.99,9,3,9,0.00
2013-7-7,89.6,80.5,69.4,72.4,68.9,64.4,85,69,50,30.03,29.96,10,2,10,0.00
2013-7-8,85.8,78.8,71.2,76.4,73.0,69.1,99,83,69,30.07,29.99,11,2,11,0.00
2013-7-9,88.2,82.3,77.0,79.2,76.4,73.4,96,83,65,30.02,29.90,7,2,7,0.00
2013-7-10,88.5,80.7,69.8,76.2,68.9,58.5,91,68,48,30.03,29.85,13,3,13,0.00
2013-7-11,88.7,73.9,61.3,67.2,58.8,51.9,97,63,31,30.11,30.03,9,1,9,0.00
2013-7-12,91.4,73.5,57.7,65.4,55.7,45.9,96,60,23,30.17,30.07,8,1,8,0.00
2013-7-13,90.1,75.5,60.3,67.0,60.5,56.6,95,63,34,30.16,30.08,10,2,10,0.00
2013-7-14,92.1,80.8,66.9,71.8,67.5,64.2,93,66,44,30.19,30.11,11,3,11,0.00
2013-7-15,98.1,82.6,72.3,78.3,73.5,69.1,96,76,43,30.27,30.18,8,2,8,0.00
2013-7-16,78.1,75.7,73.9,75.3,73.9,72.5,98,94,90,30.27,30.25,4,0,4,0.00
2013-7-17,96.1,84.8,73.4,76.7,73.3,70.9,94,70,48,30.34,30.20,6,1,6,0.00
2013-7-18,95.4,85.5,74.5,78.1,74.1,71.4,95,70,51,30.22,30.00,8,1,8,0.00
2013-7-19,93.2,86.2,77.7,75.8,72.4,67.5,87,65,45,30.01,29.83,10,2,10,0.00
2013-7-20,92.5,81.3,70.3,72.9,67.2,58.3,98,65,37,29.95,29.85,8,1,8,0.00
2013-7-21,84.2,76.2,69.3,74.2,70.5,66.2,97,83,61,29.96,29.86,8,2,8,0.00
2013-7-22,87.8,77.9,65.8,74.5,70.1,65.2,99,79,52,29.89,29.78,17,2,17,0.00
2013-7-23,80.8,72.3,65.8,70.3,65.1,59.4,99,79,56,29.97,29.78,13,3,13,0.00
2013-7-24,79.5,69.1,59.0,60.4,55.1,48.6,95,64,38,30.07,29.97,34,2,34,0.00
2013-7-25,87.1,71.3,54.0,60.9,55.8,50.5,94,62,30,30.13,30.04,7,1,7,0.00
2013-7-26,72.5,67.6,59.4,70.1,63.8,58.4,99,88,71,30.06,29.93,9,2,9,0.00
2013-7-27,67.5,61.5,56.7,59.3,53.3,45.3,99,77,47,29.99,29.93,15,4,15,0.00
2013-7-28,72.3,62.3,52.9,54.4,51.6,48.6,91,70,47,30.06,29.93,11,3,11,0.00
2013-7-29,78.6,65.7,50.7,60.2,54.4,48.9,99,71,37,30.17,30.06,7,1,7,0.00
2013-7-30,68.5,66.6,63.3,68.1,64.0,56.2,99,92,66,30.17,30.04,11,3,11,0.00
2013-7-31,75.7,70.3,67.3,69.5,68.0,66.2,99,93,77,30.05,29.99,13,2,13,0.00
2013-8-1,81.3,72.5,62.1,67.6,61.9,54.9,99,73,43,30.07,29.96,8,2,10,0.00
2013-8-2,85.1,76.4,69.3,72.7,67.2,60.4,99,74,56,29.98,29.89,8,2,8,0.00
2013-8-3,84.6,72.6,62.2,68.5,61.7,54.1,99,72,42,30.14,29.98,10,1,10,0.00
2013-8-4,90.0,71.5,57.6,62.8,56.5,42.6,98,65,26,30.20,30.11,8,1,8,0.00
2013-8-5,79.2,70.0,63.0,69.1,63.7,59.4,97,81,56,30.11,29.88,24,3,24,0.00
2013-8-6,88.3,76.7,67.5,75.3,71.3,67.2,99,85,61,29.93,29.83,14,2,14,0.00
2013-8-7,87.1,78.9,71.2,78.4,72.9,67.0,98,83,56,29.96,29.82,11,2,11,0.00
2013-8-8,85.5,75.1,66.2,68.4,65.6,60.3,95,74,53,30.01,29.95,11,3,11,0.00
2013-8-9,90.0,74.1,60.8,69.3,62.8,53.8,93,70,33,30.08,29.99,5,1,5,0.00
2013-8-10,80.6,71.9,61.5,69.1,60.9,53.6,95,71,42,30.17,30.07,10,2,10,0.00
2013-8-11,85.3,72.4,57.4,66.9,61.3,55.7,99,71,41,30.15,30.06,6,1,6,0.00
2013-8-12,82.8,74.9,68.4,73.5,67.8,63.6,94,79,60,30.08,29.91,9,2,9,0.00
2013-8-13,79.7,68.0,54.7,65.2,55.7,45.6,96,68,39,30.16,29.96,11,2,11,0.00
2013-8-14,83.1,63.9,50.5,54.9,51.2,45.8,98,68,31,30.23,30.14,9,1,9,0.00
2013-8-15,80.1,66.5,55.0,58.0,54.0,46.5,91,67,32,30.19,30.11,9,1,9,0.00
2013-8-16,86.2,70.7,55.9,60.9,56.2,48.1,96,65,31,30.19,30.13,9,2,9,0.00
2013-8-17,86.4,70.2,56.8,63.8,58.0,54.6,99,70,39,30.24,30.15,11,2,11,0.00
2013-8-18,90.5,72.2,59.2,62.8,58.1,51.5,92,65,31,30.22,30.11,8,2,8,0.00
2013-8-19,86.0,73.8,61.5,66.7,63.2,58.2,94,72,47,30.14,30.05,11,1,11,0.00
2013-8-20,88.3,78.0,68.2,69.3,66.0,61.1,89,69,44,30.13,30.04,9,2,9,0.00
2013-8-21,90.0,79.8,70.5,71.2,67.7,62.3,89,68,43,30.11,30.01,11,2,11,0.00
2013-8-22,86.9,75.6,70.3,74.1,69.7,67.4,97,83,61,30.14,30.03,13,2,13,0.00
2013-8-23,83.7,74.8,67.1,72.3,66.7,58.5,99,78,50,30.17,30.10,9,2,9,0.00
2013-8-24,91.0,77.2,62.6,69.4,64.7,57.8,92,67,44,30.24,30.15,10,3,10,0.00
2013-8-25,89.2,79.9,69.8,70.6,66.4,62.4,81,65,45,30.27,30.17,8,3,8,0.00
2013-8-26,91.6,81.5,70.5,74.3,70.2,63.9,88,70,48,30.19,30.03,9,2,9,0.00
2013-8-27,93.0,83.8,75.0,75.0,71.3,63.8,92,68,44,30.05,29.92,9,2,9,0.00
2013-8-28,92.7,83.6,75.4,80.1,72.0,63.2,92,69,56,30.03,29.92,9,3,9,0.00
2013-8-29,85.3,77.2,70.5,74.9,72.5,70.3,99,86,67,30.09,29.99,8,2,8,0.00
2013-8-30,95.9,84.1,73.4,77.6,72.0,64.9,93,70,37,29.99,29.80,25,3,25,0.00
2013-8-31,99.0,80.9,71.1,77.2,70.6,62.5,97,72,41,29.84,29.76,8,2,8,0.00
2013-9-1,89.2,76.9,65.5,74.3,68.7,62.6,99,78,49,29.87,29.76,8,2,8,0.00
2013-9-2,80.8,71.1,62.1,67.0,60.9,55.7,97,72,45,30.00,29.85,11,3,11,0.00
2013-9-3,77.4,66.5,53.6,63.0,57.3,52.3,99,75,47,30.11,30.00,7,1,7,0.00
2013-9-4,83.5,69.9,56.7,61.7,57.4,49.2,99,69,32,30.17,30.06,7,1,7,0.00
2013-9-5,93.6,76.5,62.4,70.5,62.3,56.3,87,64,31,30.21,30.12,8,2,8,0.00
2013-9-6,90.0,75.7,60.8,65.3,60.2,52.1,84,61,40,30.20,30.02,15,3,15,0.00
2013-9-7,89.1,78.7,68.2,70.5,65.9,63.6,86,66,45,30.04,29.91,10,2,10,0.00
2013-9-8,88.9,79.7,71.2,72.5,70.4,67.0,95,75,56,30.00,29.90,11,2,11,0.00
2013-9-9,96.3,84.1,73.4,75.8,73.1,68.6,98,72,41,29.94,29.85,11,3,11,0.00
2013-9-10,95.4,85.3,74.7,72.9,66.8,61.1,75,56,34,30.06,29.94,10,2,10,0.00
2013-9-11,92.8,81.0,71.1,71.5,68.0,63.7,99,67,39,30.09,30.02,10,2,10,0.00
2013-9-12,83.1,73.3,59.5,71.3,59.2,39.4,99,68,23,30.11,30.00,14,3,14,0.00
2013-9-13,73.6,62.2,54.1,53.4,43.1,29.3,91,55,23,30.20,30.09,9,2,9,0.00
2013-9-14,73.9,61.9,45.0,50.0,43.8,33.1,99,57,23,30.18,30.02,10,2,10,0.00
2013-9-15,66.6,61.6,56.3,62.9,54.3,44.4,99,78,55,30.16,29.98,7,0,7,0.00
2013-9-16,72.0,62.0,53.4,58.0,53.1,47.8,99,75,47,30.33,30.16,13,1,13,0.00
2013-9-17,76.8,63.8,49.6,58.6,54.2,48.2,99,73,48,30.30,30.09,10,1,10,0.00
2013-9-18,87.4,76.0,65.7,72.0,65.0,54.7,84,70,53,30.09,29.91,13,3,14,0.00
2013-9-19,91.2,80.4,67.1,72.6,70.0,64.5,99,73,50,29.95,29.79,13,3,13,0.00
2013-9-20,71.2,66.8,56.8,69.4,61.3,49.3,99,84,48,29.91,29.82,6,1,6,0.00
2013-9-21,71.1,59.3,50.2,54.8,50.0,43.8,98,75,40,29.95,29.87,10,0,10,0.00
2013-9-22,78.8,61.4,46.8,57.3,48.3,41.1,99,67,31,30.05,29.93,7,1,7,0.00
2013-9-23,81.5,63.1,47.8,51.8,47.5,42.0,95,61,27,30.07,29.96,11,2,11,0.00
2013-9-24,81.0,65.8,50.5,56.1,52.0,48.6,95,64,35,30.00,29.87,11,1,11,0.00
2013-9-25,84.2,67.4,54.7,59.1,54.1,51.1,88,65,37,29.94,29.87,10,1,10,0.00
2013-9-26,85.8,68.8,54.3,59.2,54.9,48.2,98,65,36,30.05,29.93,8,1,8,0.00
2013-9-27,87.6,71.3,53.8,57.7,50.6,41.5,94,53,23,30.13,30.02,11,3,11,0.00
2013-9-28,84.6,71.6,59.5,69.2,60.5,53.5,99,70,45,30.04,29.91,20,3,20,0.00
2013-9-29,73.2,59.8,50.5,58.7,50.1,38.8,99,75,32,30.08,29.99,8,1,8,0.00
2013-9-30,81.0,64.8,48.7,62.1,52.6,45.7,99,70,34,30.00,29.86,11,2,11,0.00
2013-10-1,80.8,70.0,63.0,68.9,65.9,62.1,99,88,60,29.99,29.89,9,2,9,0.00
2013-10-2,88.0,71.9,65.1,70.9,67.9,64.4,99,88,50,30.07,29.95,10,2,10,0.00
2013-10-3,83.3,71.3,65.3,74.3,68.8,64.5,99,92,67,29.96,29.83,11,2,11,0.00
2013-10-4,88.2,75.5,68.2,75.1,69.9,65.7,99,84,59,29.97,29.90,11,3,11,0.00
2013-10-5,77.7,71.1,57.7,73.6,68.4,56.0,99,91,76,29.93,29.79,11,2,11,0.00
2013-10-6,57.7,51.0,46.2,56.0,45.1,38.7,99,82,53,29.84,29.76,5,0,5,0.00
2013-10-7,72.0,57.0,44.8,51.3,46.9,41.8,99,73,35,30.09,29.81,4,0,4,0.00
2013-10-8,81.0,64.0,49.5,53.7,48.2,41.5,93,61,27,30.19,30.09,11,1,11,0.00
2013-10-9,81.3,62.2,45.7,55.9,47.4,39.8,99,63,25,30.21,30.10,8,1,8,0.00
2013-10-10,82.8,63.9,50.4,61.0,54.3,46.9,97,74,40,30.15,30.01,10,1,10,0.00
2013-10-11,85.3,69.7,57.7,62.8,56.9,52.5,96,67,37,30.04,29.90,17,3,17,0.00
2013-10-12,73.2,64.6,53.6,64.0,53.7,35.4,99,70,28,30.20,29.93,1,0,1,0.00
2013-10-13,72.9,54.0,40.6,45.4,36.0,16.9,92,58,15,30.39,30.20,7,1,7,0.00
2013-10-14,70.7,54.4,39.7,48.3,40.5,31.7,99,63,26,30.38,30.06,9,0,9,0.01
2013-10-15,72.0,60.9,48.2,64.1,52.9,43.1,99,76,57,30.06,29.79,0,0,0,0.00
2013-10-16,53.4,50.5,46.4,46.8,44.4,42.1,88,80,73,29.98,29.90,0,0,0,0.00
2013-10-17,62.2,51.5,46.8,49.4,43.3,34.3,99,77,36,29.96,29.84,0,0,0,0.00
2013-10-18,54.1,47.3,41.4,43.7,40.6,37.0,99,79,55,30.00,29.86,0,0,0,0.00
2013-10-19,57.4,47.6,38.3,42.4,38.5,33.9,99,73,45,29.96,29.83,0,0,0,0.00
2013-10-20,70.3,54.7,41.2,47.2,42.3,38.3,93,66,35,29.86,29.73,11,0,11,0.00
2013-10-21,56.5,45.0,30.9,48.7,32.8,20.3,88,64,32,30.00,29.83,0,0,0,0.00
2013-10-22,42.3,36.4,28.6,41.8,34.6,25.6,99,93,79,30.00,29.83,0,0,0,0.00
2013-10-23,47.3,39.1,32.9,37.0,32.1,27.1,99,77,51,30.06,29.94,0,0,0,0.00
2013-10-24,42.4,36.4,28.0,36.8,27.1,21.6,99,70,45,30.33,30.04,0,0,0,0.00
2013-10-25,55.6,39.8,23.7,35.3,26.7,21.7,97,64,31,30.41,30.09,0,0,0,0.00
2013-10-26,58.3,44.8,30.7,36.9,30.8,24.3,89,60,28,30.11,29.93,20,1,20,0.00
2013-10-27,61.0,42.4,26.2,34.1,29.6,25.3,98,65,29,30.09,29.97,9,1,9,0.00
2013-10-28,71.2,49.3,35.6,42.4,33.6,26.5,89,60,20,30.30,30.04,10,1,10,0.00
2013-10-29,58.3,47.2,37.9,52.1,43.4,37.7,99,88,58,30.30,30.09,0,0,0,0.00
2013-10-30,64.6,58.0,52.3,64.3,57.7,52.1,99,99,99,30.10,29.77,11,3,11,0.00
2013-10-31,65.3,57.5,45.1,64.1,57.1,44.3,99,99,96,29.77,29.29,12,4,12,0.00
2013-11-1,52.3,46.9,42.6,47.0,44.9,42.4,99,93,72,29.78,29.50,13,3,13,0.00
2013-11-2,53.4,42.3,30.6,43.0,37.1,29.8,99,84,49,30.14,29.77,11,2,11,0.00
2013-11-3,64.0,43.2,27.3,46.7,34.1,26.9,99,74,31,30.28,30.13,14,2,14,0.00
2013-11-4,60.1,52.0,45.0,46.7,41.8,36.6,78,69,48,30.18,30.06,17,4,17,0.00
2013-11-5,55.6,53.5,52.3,54.4,51.5,46.6,99,93,78,30.24,29.93,15,2,15,0.00
2013-11-6,57.4,46.3,32.7,57.1,43.8,29.1,99,91,72,30.21,29.83,18,4,18,0.00
2013-11-7,50.4,36.4,26.1,38.1,31.5,25.6,99,83,57,30.28,30.20,15,2,15,0.00
2013-11-8,57.7,42.6,25.7,41.0,31.6,25.0,99,69,38,30.31,29.94,23,5,23,0.00
2013-11-9,63.5,52.3,43.3,41.4,38.0,35.0,79,60,36,30.19,29.90,17,4,17,0.00
2013-11-10,56.1,42.7,32.7,36.6,31.5,28.9,87,66,37,30.39,30.19,10,2,10,0.00
2013-11-11,50.9,40.0,23.9,41.2,32.7,20.1,99,77,56,30.51,30.09,12,2,12,0.00
2013-11-12,23.9,19.6,19.2,19.9,15.9,15.5,87,85,84,30.72,30.52,0,0,0,0.00
2013-11-13,19.2,14.1,0.0,15.5,15.5,15.5,85,62,85,30.60,30.17,0,0,0,0.00
2013-11-14,54.1,24.5,0.0,28.3,19.2,15.5,61,20,25,30.17,29.95,14,2,14,0.00
2013-11-15,52.0,43.4,39.4,40.2,33.3,27.2,87,68,55,29.99,29.88,14,4,14,0.00
2013-11-16,59.9,54.2,43.2,58.2,52.5,39.9,99,94,87,29.89,29.57,33,10,33,0.00
2013-11-17,69.8,56.8,43.7,66.1,53.1,39.8,99,88,69,29.86,29.21,27,8,27,0.00
2013-11-18,49.6,41.4,29.1,40.9,32.6,25.2,93,72,44,30.26,29.85,15,4,15,0.00
2013-11-19,59.4,35.8,15.8,30.5,26.1,12.9,96,73,27,30.33,30.20,11,2,11,0.00
2013-11-20,43.5,38.6,34.0,40.4,33.7,28.5,99,83,63,30.22,30.02,14,1,14,0.00
2013-11-21,50.9,46.1,42.1,48.9,44.2,40.3,99,93,83,30.21,30.05,4,0,4,0.00
2013-11-22,41.9,35.0,24.6,41.6,33.0,22.8,99,92,80,30.49,30.21,11,1,11,0.00
2013-11-23,27.3,20.8,13.8,23.2,14.4,7.4,97,77,44,30.69,30.45,0,0,0,0.00
2013-11-24,14.0,14.0,14.0,7.9,7.9,7.9,76,76,76,30.70,30.34,0,0,0,0.00
2013-11-25,14.0,14.0,14.0,7.9,7.9,7.9,76,76,76,30.34,30.06,0,0,0,0.00
2013-11-26,14.0,14.0,14.0,7.9,7.9,7.9,76,76,76,30.19,30.02,0,0,0,0.00
2013-11-27,32.9,19.7,14.0,12.2,8.7,7.1,76,63,36,30.26,30.16,0,0,0,0.00
2013-11-28,42.1,27.8,17.1,19.6,15.5,10.6,84,61,38,30.45,30.12,0,0,0,0.00
2013-11-29,47.7,29.1,13.1,24.2,18.3,11.0,96,67,29,30.56,30.32,0,0,0,0.00
2013-11-30,57.4,42.0,32.2,35.6,31.1,24.2,88,67,37,30.32,30.03,0,0,0,0.00
2013-12-1,60.6,39.6,25.5,36.0,30.9,24.3,99,75,34,30.10,29.93,0,0,0,0.00
2013-12-2,47.7,39.3,32.5,40.7,36.3,31.3,99,89,66,29.93,29.65,0,0,0,0.00
2013-12-3,52.0,45.7,35.8,51.7,45.4,35.5,99,99,97,29.68,29.59,10,1,10,0.00
2013-12-4,55.4,48.4,33.1,55.1,47.8,30.5,99,98,89,29.79,29.48,17,2,17,0.00
2013-12-5,33.1,23.2,19.4,30.6,16.1,11.0,91,74,63,30.27,29.78,0,0,0,0.00
2013-12-6,19.2,10.6,7.2,11.7,4.6,1.6,78,76,70,30.54,30.24,0,0,0,0.00
2013-12-7,26.1,12.6,7.2,7.2,2.7,0.8,82,66,35,30.68,30.49,0,0,0,0.00
2013-12-8,24.6,20.4,11.8,23.7,17.3,6.1,99,88,77,30.49,29.95,0,0,0,0.00
2013-12-9,23.5,20.4,19.6,22.3,13.6,9.8,95,75,65,30.25,29.96,0,0,0,0.00
2013-12-10,29.1,20.4,16.5,11.9,9.1,5.4,74,61,41,30.27,30.03,0,0,0,0.00
2013-12-11,25.0,18.0,14.2,17.8,7.3,-0.9,89,63,44,30.57,30.21,0,0,0,0.00
2013-12-12,14.2,14.2,14.2,-0.1,-0.1,-0.1,52,52,52,30.54,30.18,0,0,0,0.00
2013-12-13,14.2,14.2,14.2,-0.1,-0.1,-0.1,52,52,52,30.18,29.99,0,0,0,0.00
2013-12-14,14.2,14.2,14.2,-0.1,-0.1,-0.1,52,52,52,30.03,29.88,0,0,0,0.00
2013-12-15,14.2,14.2,14.2,-0.1,-0.1,-0.1,52,52,52,30.09,30.00,0,0,0,0.00
2013-12-16,14.2,2.7,0.0,-0.1,-0.1,-0.1,52,10,52,30.08,29.97,0,0,0,0.00
2013-12-17,0.0,0.0,0.0,-0.1,-0.1,-0.1,0,0,100,30.16,30.01,0,0,0,0.00
2013-12-18,0.0,0.0,0.0,-0.1,-0.1,-0.1,0,0,100,30.17,29.83,0,0,0,0.00
2013-12-19,0.0,0.0,0.0,-0.1,-0.1,-0.1,0,0,100,29.87,29.73,0,0,0,0.00
2013-12-20,0.0,0.0,0.0,-0.1,-0.1,-0.1,0,0,100,29.83,29.69,0,0,0,0.00
2013-12-21,0.0,0.0,0.0,-0.1,-0.1,-0.1,0,0,100,29.84,29.56,0,0,0,0.00
2013-12-22,0.0,0.0,0.0,-0.1,-0.1,-0.1,0,0,100,30.19,29.58,0,0,0,0.00
2013-12-23,0.0,0.0,0.0,-0.1,-0.1,-0.1,0,0,100,30.48,30.18,0,0,0,0.00
2013-12-24,0.0,0.0,0.0,-0.1,-0.1,-0.1,0,0,100,30.54,30.28,0,0,0,0.00
2013-12-25,0.0,0.0,0.0,-0.1,-0.1,-0.1,0,0,100,30.27,30.11,0,0,0,0.00
2013-12-26,0.0,0.0,0.0,-0.1,-0.1,-0.1,0,0,100,30.28,30.14,0,0,0,0.00
2013-12-27,0.0,0.0,0.0,-0.1,-0.1,-0.1,0,0,100,30.28,30.11,0,0,0,0.00
2013-12-28,0.0,0.0,0.0,-0.1,-0.1,-0.1,0,0,100,30.11,29.83,0,0,0,0.00
2013-12-29,0.0,0.0,0.0,-0.1,-0.1,-0.1,0,0,100,30.22,29.79,0,0,0,0.00
2013-12-30,0.0,0.0,0.0,-0.1,-0.1,-0.1,0,0,100,30.30,30.14,0,0,0,0.00
2013-12-31,0.0,0.0,0.0,-0.1,-0.1,-0.1,0,0,100,30.34,30.15,0,0,0,0.00
2014-1-1,0.0,0.0,0.0,-0.1,-0.1,-0.1,0,0,100,30.18,30.10,0,0,0,0.00
2014-1-2,0.0,0.0,0.0,-0.1,-0.1,-0.1,0,0,100,30.40,30.10,0,0,0,0.00